Weather History for Banff, AB

Change the Weather History Date:

Thursday, July 4, 2013

  Actual Average Record
Temperature  
Mean Temperature 60 °F -  
Max Temperature 76 °F - - ()
Min Temperature 45 °F - - ()
Degree Days  
Heating Degree Days 4    
Growing Degree Days 10 (Base 50)    
Moisture  
Dew Point 44 °F    
Average Humidity 60    
Maximum Humidity 95    
Minimum Humidity 22    
Precipitation  
Precipitation 0.00 in - - ()
Sea Level Pressure  
Sea Level Pressure 29.87 in    
Wind  
Wind Speed 3 mph ()    
Max Wind Speed 12 mph    
Max Gust Speed 20 mph    
T = Trace of Precipitation, MM = Missing Value Source: Averaged Metar Reports

Daily Weather History Graph

Daily Weather History Graph

Search for Another Location

Airport:

Trip Planner

Search our weather history database for the weather conditions in past years. The results will help you decide how hot, cold, wet, or windy it might be!

Date:

Astronomy

Jul. 04, 2013 Rise Set
Actual Time 5:33 AM MDT 9:59 PM MDT
Civil Twilight 4:47 AM MDT 10:45 PM MDT
Nautical Twilight 3:38 AM MDT 11:54 PM MDT
Astronomical Twilight 2:19 AM MDT 1:14 AM MDT
Moon 3:03 AM MDT (7/4) 6:59 PM MDT (7/4)
Length of Visible Light 17h 57m
Length of Day
16h 25m
Waning Crescent, 11% of the Moon is Illuminated
Jul 4
Waning Crescent
Jul 8
New
Jul 15
First Quarter
Jul 22
Full
Jul 29
Last Quarter

Hourly Weather History & Observations

Time (MDT) Temp. Dew Point Humidity Pressure Visibility Wind Dir Wind Speed Gust Speed Precip Events Conditions
12:00 AM 57.9 °F 51.8 °F 80% 29.94 in - NE 3.5 mph - N/A   Unknown
1:00 AM 55.8 °F 49.5 °F 79% 29.95 in - NE 2.3 mph - N/A   Unknown
2:00 AM 53.2 °F 48.0 °F 82% 29.94 in - North 1.2 mph - N/A   Unknown
3:00 AM 48.2 °F 45.5 °F 90% 29.95 in - Calm Calm - N/A   Unknown
4:00 AM 47.1 °F 45.7 °F 95% 29.95 in - NW 1.2 mph - N/A   Unknown
5:00 AM 45.9 °F 43.9 °F 93% 29.94 in - WSW 1.2 mph - N/A   Unknown
6:00 AM 45.9 °F 43.7 °F 92% 29.96 in - NW 2.3 mph - N/A   Unknown
7:00 AM 49.6 °F 44.4 °F 82% 29.96 in - WSW 2.3 mph - N/A   Unknown
8:00 AM 52.9 °F 43.5 °F 71% 29.95 in - West 3.5 mph - N/A   Unknown
9:00 AM 54.3 °F 43.7 °F 67% 29.94 in - SW 5.8 mph - N/A   Unknown
10:00 AM 55.8 °F 43.3 °F 63% 29.92 in - SW 4.6 mph - N/A   Unknown
11:00 AM 57.7 °F 45.7 °F 64% 29.91 in - SSW 4.6 mph - N/A   Unknown
12:00 PM 62.6 °F 46.9 °F 57% 29.88 in - SSE 2.3 mph - N/A   Unknown
1:00 PM 68.2 °F 46.8 °F 46% 29.85 in - ESE 2.3 mph - N/A   Unknown
2:00 PM 69.3 °F 42.4 °F 38% 29.84 in - East 1.2 mph - N/A   Unknown
3:00 PM 74.1 °F 37.0 °F 26% 29.81 in - WSW 8.1 mph - N/A   Unknown
4:00 PM 76.5 °F 36.3 °F 23% 29.79 in - WSW 11.5 mph 18.4 mph N/A   Unknown
5:00 PM 76.3 °F 34.7 °F 22% 29.78 in - WSW 5.8 mph - N/A   Unknown
6:00 PM 75.7 °F 37.2 °F 25% 29.76 in - SW 10.4 mph 19.6 mph N/A   Unknown
7:00 PM 73.4 °F 35.8 °F 25% 29.75 in - WSW 5.8 mph - N/A   Unknown
8:00 PM 72.5 °F 36.3 °F 27% 29.75 in - WSW 5.8 mph - N/A   Unknown
9:00 PM 65.5 °F 37.6 °F 36% 29.77 in - South 2.3 mph - N/A   Unknown
10:00 PM 61.3 °F 52.2 °F 72% 29.81 in - NE 3.5 mph - N/A   Unknown
11:00 PM 59.7 °F 52.2 °F 76% 29.83 in - NE 8.1 mph - N/A   Unknown